Location: ????????
(55.0559°N, 39.1270°E)
Time: 17:17:34
(UTC+00:00)

Okean 2 Rocket - Pass Details

Date: 15 November 2025
Orbit: 611 x 634 km, 82.5° (Epoch: 14 December)

Event Time Altitude Azimuth Distance (km) Brightness Sun altitude
Rises 03:38:42 0° 343° (NNW) 2,892 6.2 -10.8°
Reaches altitude 10° 03:41:02 10° 336° (NNW) 1,982 5.3 -10.5°
Maximum altitude 03:45:06 39° 268° (W) 932 3.5 -10.0°
Drops below altitude 10° 03:49:08 10° 200° (SSW) 1,969 5.6 -9.4°
Sets 03:51:27 0° 192° (SSW) 2,871 6.6 -9.1°
